This demonstration page uses our WeatherBlox Daily Observations layout. Learn more.

38.88101, -77.10428

Hourly Observations for February 20, 2018

Temp ( °F °C ) Dew Point ( °F °C ) Humidity (%) Winds ( mph kmh ) Pressure ( in mb ) Visibility ( mi km ) Precip ( " mm )
12:52 am 00:52 Cloudy 50 10 49 9.4 96 96 S 9 15 30.35 1028 9 14.48406 0 0
1:52 am 01:52 Cloudy 51 10.6 50 10 96 96 S 14 22 30.34 1027 10 16.0934 0 0
2:41 am 02:41 Cloudy with Mist and Fog 51 10.6 51 10.6 100 100 S 13 20 30.33 1027 5 8.0467 0 0
2:52 am 02:52 Cloudy with Mist and Fog 51 10.6 51 10.6 100 100 S 13 20 30.32 1027 5 8.0467 0 0
3:52 am 03:52 Cloudy 52 11.1 52 11.1 100 100 S 13 20 30.32 1027 7 11.26538 0 0
4:05 am 04:05 Cloudy 53 11.7 52 11.1 96 96 SSW 13 20 30.33 1027 10 16.0934 0 0
4:52 am 04:52 Cloudy 53 11.7 52 11.1 96 96 SSW 12 19 30.33 1027 10 16.0934 0 0
5:52 am 05:52 Cloudy 54 12.2 53 11.7 97 97 SSW 10 17 30.35 1028 10 16.0934 0 0
6:52 am 06:52 Cloudy 54 12.2 53 11.7 97 97 SSW 14 22 30.37 1028 10 16.0934 0 0
7:52 am 07:52 Cloudy 54 12.2 53 11.7 97 97 S 9 15 30.38 1029 10 16.0934 0 0
8:02 am 08:02 Cloudy 53 11.7 52 11.1 96 96 S 9 15 30.39 1029 10 16.0934 0 0
8:27 am 08:27 Mostly Cloudy 54 12.2 52 11.1 93 93 S 12 19 30.39 1029 10 16.0934 0 0
8:52 am 08:52 Mostly Cloudy 56 13.3 53 11.7 90 90 SSW 12 19 30.38 1029 10 16.0934 0 0
9:52 am 09:52 Mostly Cloudy 60 15.6 55 12.8 84 84 S 8 13 30.39 1029 10 16.0934 0 0
10:52 am 10:52 Mostly Cloudy 63 17.2 56 13.3 78 78 S 10 17 30.37 1029 10 16.0934 0 0
11:52 am 11:52 Mostly Cloudy 68 20 58 14.4 70 70 S 12 19 30.35 1028 10 16.0934 0 0
12:52 pm 12:52 Partly Cloudy 71 21.7 58 14.4 63 63 S 13 20 30.31 1027 10 16.0934 0 0
1:52 pm 13:52 Partly Cloudy 73 22.8 58 14.4 59 59 S 16 26 30.29 1026 10 16.0934 0 0
2:24 pm 14:24 Mostly Cloudy 76 24.4 58 14.4 54 54 S 16 26 30.27 1025 10 16.0934 0 0
2:36 pm 14:36 Mostly Cloudy 77 25 58 14.4 52 52 SSW 18 30 30.3 1026 10 16.0934 0 0
2:52 pm 14:52 Mostly Cloudy 77 25 56 13.3 48 48 SSW 17 28 30.28 1025 10 16.0934 0 0
3:52 pm 15:52 Mostly Cloudy 77 25 55 12.8 47 47 SSW 23 37 30.27 1025 10 16.0934 0 0
4:52 pm 16:52 Mostly Cloudy 76 24.4 55 12.8 48 48 SSW 14 22 30.28 1025 10 16.0934 0 0
5:52 pm 17:52 Mostly Cloudy 71 21.7 54 12.2 55 55 S 10 17 30.29 1026 10 16.0934 0 0
6:52 pm 18:52 Mostly Cloudy 68 20 54 12.2 61 61 SSW 14 22 30.31 1026 10 16.0934 0 0
7:52 pm 19:52 Mostly Cloudy 69 20.6 55 12.8 61 61 S 13 20 30.32 1027 10 16.0934 0 0
8:52 pm 20:52 Mostly Cloudy 64 17.8 55 12.8 73 73 S 12 19 30.33 1027 10 16.0934 0 0
9:52 pm 21:52 Mostly Cloudy 62 16.7 55 12.8 78 78 S 10 17 30.33 1027 10 16.0934 0 0
10:52 pm 22:52 Mostly Cloudy 61 16.1 56 13.3 84 84 S 12 19 30.33 1027 10 16.0934 0 0
11:52 pm 23:52 Mostly Cloudy 61 16.1 57 13.9 87 87 S 10 17 30.34 1027 10 16.0934 0 0

Powered by AerisWeather